Flag for France Weather past 2 weeks in Toulouse, France

Now
54 °F

Clear.


Feels Like: 49 °F
Forecast: 53 / 58 °F
Wind: 17 mph from West

Location: Toulouse / Blagnac

Current Time: Mar 30, 2015 at 1:14:53 AM

Latest Report: Mar 30, 2015 at 12:30 AM


Visibility: N/A

Pressure: 30.21 "Hg

Humidity: 72%

Dew point: 45 °F

Location of ToulouseLocation

Historic Weather in Toulouse — Graph

°F

Toulouse temperature yesterday

Maximum temperature yesterday: 59 °F (at 3:30 PM)
Minimum temperature yesterday: 50 °F (at 4:30 AM)
Average temperature yesterday: 55 °F

Past Weeks' High & Low Weather Summary

 TemperatureHumidityPressure
High68 °F (Mar 19, 4:00 PM)100% (Mar 16, 5:30 AM)30.36 "Hg (Mar 16, 5:30 AM)
Low36 °F (Mar 17, 5:00 AM)37% (Mar 19, 2:30 PM)29.74 "Hg (Mar 24, 4:00 AM)
Average51 °F79%30.05 "Hg
* Reported Mar 14 11:00 PM — Midnight between Mar 29 and Mar 30, Toulouse, Weather by CustomWeather, © 2015

Note: Actual official high and low records may vary slightly from our data, if they occured in-between our weather recording intervals... More about our weather records

Advertising

Toulouse weather history for previous 24 hours

 ConditionsComfort  
Time TempWeatherWind HumidityBarometerVisibility
12:00 AM
Mon, Mar 30
55 °FClear.20 mph67%30.21 "HgN/A
11:30 PM
Sun, Mar 29
55 °FClear.18 mph72%30.21 "HgN/A
11:00 PM54 °FClear.18 mph77%30.21 "HgN/A
10:30 PM54 °FClear.14 mph77%30.24 "HgN/A
10:00 PM55 °FClear.14 mph72%30.24 "HgN/A
9:30 PM55 °FOvercast.16 mph72%30.21 "HgN/A
9:00 PM55 °FPartly sunny.16 mph67%30.21 "HgN/A
8:30 PM57 °FClear.15 mph63%30.21 "HgN/A
8:00 PM57 °FClear.16 mph67%30.18 "HgN/A
7:30 PM57 °FMostly cloudy.16 mph72%30.21 "HgN/A
7:00 PM59 °FOvercast.17 mph72%30.21 "HgN/A
6:30 PM57 °FMostly cloudy.16 mph72%30.21 "HgN/A
6:00 PM59 °FPartly sunny.21 mph68%30.21 "HgN/A
5:30 PM59 °FPartly sunny.18 mph68%30.21 "HgN/A
5:00 PM59 °FPartly sunny.23 mph68%30.21 "HgN/A
4:30 PM59 °FMostly cloudy.20 mph68%30.21 "HgN/A
4:00 PM57 °FMostly cloudy.23 mph72%30.24 "HgN/A
3:30 PM59 °FMostly cloudy.24 mph68%30.24 "HgN/A
3:00 PM57 °FMostly cloudy.24 mph72%30.24 "HgN/A
2:30 PM57 °FMostly cloudy.22 mph72%30.24 "HgN/A
2:00 PM57 °FMostly cloudy.25 mph72%30.27 "HgN/A
1:30 PM57 °FMostly cloudy.17 mph77%30.24 "HgN/A
1:00 PM57 °FPartly sunny.20 mph77%30.27 "HgN/A
12:30 PM55 °FMostly cloudy.16 mph82%30.27 "HgN/A
12:00 PM55 °FPartly sunny.18 mph82%30.27 "HgN/A
11:30 AM54 °FPartly sunny.22 mph88%30.30 "HgN/A
11:00 AM55 °FMostly cloudy.18 mph88%30.27 "HgN/A
10:30 AM54 °FDrizzle. Mostly cloudy.16 mph94%30.27 "HgN/A
10:00 AM54 °FLight rain. Overcast.15 mph88%30.27 "HgN/A
9:30 AM54 °FMostly cloudy.16 mph88%30.27 "HgN/A
9:00 AM52 °FDrizzle. Low clouds.12 mph94%30.27 "Hg4 mi
8:30 AM52 °FDrizzle. Low clouds.14 mph94%30.27 "HgN/A
8:00 AM52 °FDrizzle. Mostly cloudy.14 mph94%30.27 "HgN/A
7:30 AM52 °FDrizzle. Mostly cloudy.13 mph94%30.27 "HgN/A
7:00 AM52 °FDrizzle. Mostly cloudy.13 mph94%30.27 "Hg6 mi
6:30 AM50 °FDrizzle. Mostly cloudy.12 mph100%30.27 "Hg4 mi
6:00 AM50 °FDrizzle. Fog.13 mph100%30.27 "Hg2 mi
5:30 AM52 °FPassing clouds.15 mph94%30.27 "HgN/A
5:00 AM50 °FMostly cloudy.14 mph100%30.27 "HgN/A
4:30 AM50 °FPartly cloudy.13 mph94%30.27 "HgN/A
4:00 AM52 °FLight rain. Partly cloudy.15 mph88%30.30 "HgN/A
3:30 AM52 °FMostly cloudy.14 mph82%30.30 "HgN/A
3:00 AM52 °FPassing clouds.13 mph88%30.30 "HgN/A
1:30 AM52 °FMostly cloudy.9 mph88%30.30 "HgN/A
1:00 AM52 °FPartly cloudy.12 mph88%30.30 "HgN/A
Weather by CustomWeather, © 2015

See weather overviewHow to use our weather pages